sat.trackr.live / text

‹ back to catalog

STARLINK-38015

NORAD 69726 · 2026-147Y

PAYLOAD ACTIVE UNKNOWN

§ Identity

Operator
Country
US
Launch date
2026-06-28
Launch site
AFWTR
Launch vehicle
Mass (kg)
RCS (m²)

Purposes: comms

External: N2YO · Heavens-Above · Gunter

§ Orbital elements

Epoch: 2026-09-19T15:46:58.484640Z

Period
91.42 min
Inclination
97.2848°
Eccentricity
0.0000932
Mean motion
15.75208879 rev/d
Perigee alt
343.4 km
Apogee alt
344.7 km
Semi-major
6,722.2 km
B*
5.8828e-4
RAAN
302.3707°
Arg perigee
94.3758°
Mean anomaly
265.7614°
Rev number
1,432

§ Raw data

STARLINK-380151 69726U 26147Y   26262.65762135  .00088601  00000+0  58828-3 0  99992 69726  97.2848 302.3707 0000932  94.3758 265.7614 15.75208879 14325

JSON: /api/v1/satellites/69726 · /tle

For live sub-satellite position, see the globe view (requires WebGL).

§ Visibility from observer

Set your observer location to see the next 7 days of passes ≥ 10°. The values pass through the URL so the page stays shareable.

No JS? Fill the form by hand. The geolocation button needs JavaScript.